2015080100 , 00 , 43
2015080101 , 01 , 42
2015080102 , 02 , 34
2015080103 , 03 , 49
2015080104 , 04 , 33
2015080105 , 05 , 42
2015080106 , 06 , 19
2015080107 , 07 , 25
2015080108 , 08 , 19
2015080109 , 09 , 14
2015080110 , 10 , 16
2015080111 , 11 , 21
2015080112 , 12 , 13
2015080113 , 13 , 13
2015080114 , 14 , 12
2015080115 , 15 , 15
2015080116 , 16 , 15
2015080117 , 17 , 10
2015080118 , 18 , 21
2015080119 , 19 , 17
2015080120 , 20 , 23
2015080121 , 21 , 21
2015080122 , 22 , 29
2015080123 , 23 , 26
2015080200 , 00 , 36
2015080201 , 01 , 41
2015080202 , 02 , 24
2015080203 , 03 , 32
2015080204 , 04 , 22
2015080205 , 05 , 35
2015080206 , 06 , 26
2015080207 , 07 , 19
2015080208 , 08 , 25
2015080209 , 09 , 26
2015080210 , 10 , 12
2015080211 , 11 , 24
2015080212 , 12 , 40
2015080213 , 13 , 19
2015080214 , 14 , 19
2015080215 , 15 , 18
2015080216 , 16 , 19
2015080217 , 17 , 14
2015080218 , 18 , 20
2015080219 , 19 , 15
2015080220 , 20 , 13
2015080221 , 21 , 22
2015080222 , 22 , 21
2015080223 , 23 , 30
2015080300 , 00 , 40
2015080301 , 01 , 20
2015080302 , 02 , 25
2015080303 , 03 , 15
2015080304 , 04 , 20
2015080305 , 05 , 5
2015080306 , 06 , 23
2015080307 , 07 , 23
2015080308 , 08 , 25
2015080309 , 09 , 27
2015080310 , 10 , 29
2015080311 , 11 , 17
2015080312 , 12 , 17
2015080313 , 13 , 16
2015080314 , 14 , 18
2015080315 , 15 , 15
2015080316 , 16 , 25
2015080317 , 17 , 18
2015080318 , 18 , 13
2015080319 , 19 , 18
2015080320 , 20 , 11
2015080321 , 21 , 21
2015080322 , 22 , 20
2015080323 , 23 , 20
2015080400 , 00 , 40
2015080401 , 01 , 31
2015080402 , 02 , 30
2015080403 , 03 , 33
2015080404 , 04 , 32
2015080405 , 05 , 29
2015080406 , 06 , 23
2015080407 , 07 , 31
2015080408 , 08 , 17
2015080409 , 09 , 20
2015080410 , 10 , 18
2015080411 , 11 , 9
2015080412 , 12 , 24
2015080413 , 13 , 21
2015080414 , 14 , 14
2015080415 , 15 , 11
2015080416 , 16 , 14
2015080417 , 17 , 18
2015080418 , 18 , 19
2015080419 , 19 , 18
2015080420 , 20 , 18
2015080421 , 21 , 18
2015080422 , 22 , 33
2015080423 , 23 , 36
2015080500 , 00 , 30
2015080501 , 01 , 36
2015080502 , 02 , 30
2015080503 , 03 , 26
2015080504 , 04 , 33
2015080505 , 05 , 37
2015080506 , 06 , 21
2015080507 , 07 , 29
2015080508 , 08 , 25
2015080509 , 09 , 27
2015080510 , 10 , 26
2015080511 , 11 , 28
2015080512 , 12 , 20
2015080513 , 13 , 12
2015080514 , 14 , 15
2015080515 , 15 , 16
2015080516 , 16 , 11
2015080517 , 17 , 13
2015080518 , 18 , 27
2015080519 , 19 , 37
2015080520 , 20 , 17
2015080521 , 21 , 25
2015080522 , 22 , 22
2015080523 , 23 , 25
2015080600 , 00 , 29
2015080601 , 01 , 29
2015080602 , 02 , 29
2015080603 , 03 , 25
2015080604 , 04 , 32
2015080605 , 05 , 29
2015080606 , 06 , 30
2015080607 , 07 , 34
2015080608 , 08 , 34
2015080609 , 09 , 21
2015080610 , 10 , 20
2015080611 , 11 , 32
2015080612 , 12 , 23
2015080613 , 13 , 20
2015080614 , 14 , 18
2015080615 , 15 , 20
2015080616 , 16 , 20
2015080617 , 17 , 17
2015080618 , 18 , 22
2015080619 , 19 , 9
2015080620 , 20 , 18
2015080621 , 21 , 16
2015080622 , 22 , 23
2015080623 , 23 , 29
2015080700 , 00 , 24
2015080701 , 01 , 29
2015080702 , 02 , 33
2015080703 , 03 , 37
2015080704 , 04 , 20
2015080705 , 05 , 37
2015080706 , 06 , 25
2015080707 , 07 , 21
2015080708 , 08 , 25
2015080709 , 09 , 20
2015080710 , 10 , 25
2015080711 , 11 , 22
2015080712 , 12 , 19
2015080713 , 13 , 23
2015080714 , 14 , 15
2015080715 , 15 , 22
2015080716 , 16 , 13
2015080717 , 17 , 26
2015080718 , 18 , 13
2015080719 , 19 , 23
2015080720 , 20 , 18
2015080721 , 21 , 20
2015080722 , 22 , 28
2015080723 , 23 , 19
2015080800 , 00 , 23
2015080801 , 01 , 35
2015080802 , 02 , 34
2015080803 , 03 , 31
2015080804 , 04 , 39
2015080805 , 05 , 33
2015080806 , 06 , 15
2015080807 , 07 , 29
2015080808 , 08 , 25
2015080809 , 09 , 20
2015080810 , 10 , 16
2015080811 , 11 , 22
2015080812 , 12 , 11
2015080813 , 13 , 19
2015080814 , 14 , 17
2015080815 , 15 , 28
2015080816 , 16 , 22
2015080817 , 17 , 13
2015080818 , 18 , 19
2015080819 , 19 , 21
2015080820 , 20 , 17
2015080821 , 21 , 31
2015080822 , 22 , 17
2015080823 , 23 , 19
2015080900 , 00 , 24
2015080901 , 01 , 37
2015080902 , 02 , 30
2015080903 , 03 , 28
2015080904 , 04 , 40
2015080905 , 05 , 28
2015080906 , 06 , 12
2015080907 , 07 , 30
2015080908 , 08 , 25
2015080909 , 09 , 25
2015080910 , 10 , 15
2015080911 , 11 , 25
2015080912 , 12 , 11
2015080913 , 13 , 12
2015080914 , 14 , 15
2015080915 , 15 , 25
2015080916 , 16 , 18
2015080917 , 17 , 16
2015080918 , 18 , 11
2015080919 , 19 , 11
2015080920 , 20 , 25
2015080921 , 21 , 23
2015080922 , 22 , 23
2015080923 , 23 , 21
2015081000 , 00 , 28
2015081001 , 01 , 23
2015081002 , 02 , 22
2015081003 , 03 , 45
2015081004 , 04 , 43
2015081005 , 05 , 28
2015081006 , 06 , 22
2015081007 , 07 , 29
2015081008 , 08 , 24
2015081009 , 09 , 23
2015081010 , 10 , 25
2015081011 , 11 , 16
2015081012 , 12 , 17
2015081013 , 13 , 14
2015081014 , 14 , 18
2015081015 , 15 , 9
2015081016 , 16 , 11
2015081017 , 17 , 20
2015081018 , 18 , 13
2015081019 , 19 , 25
2015081020 , 20 , 18
2015081021 , 21 , 30
2015081022 , 22 , 23
2015081023 , 23 , 37
2015081100 , 00 , 32
2015081101 , 01 , 33
2015081102 , 02 , 27
2015081103 , 03 , 39
2015081104 , 04 , 41
2015081105 , 05 , 44
2015081106 , 06 , 38
2015081107 , 07 , 33
2015081108 , 08 , 48
2015081109 , 09 , 20
2015081110 , 10 , 17
2015081111 , 11 , 23
2015081112 , 12 , 21
2015081113 , 13 , 22
2015081114 , 14 , 34
2015081115 , 15 , 18
2015081116 , 16 , 16
2015081117 , 17 , 27
2015081118 , 18 , 25
2015081119 , 19 , 24
2015081120 , 20 , 18
2015081121 , 21 , 20
2015081122 , 22 , 32
2015081123 , 23 , 24
2015081200 , 00 , 34
2015081201 , 01 , 41
2015081202 , 02 , 45
2015081203 , 03 , 54
2015081204 , 04 , 49
2015081205 , 05 , 53
2015081206 , 06 , 64
2015081207 , 07 , 26
2015081208 , 08 , 35
2015081209 , 09 , 36
2015081210 , 10 , 30
2015081211 , 11 , 30
2015081212 , 12 , 19
2015081213 , 13 , 26
2015081214 , 14 , 27
2015081215 , 15 , 13
2015081216 , 16 , 11
2015081217 , 17 , 28
2015081218 , 18 , 21
2015081219 , 19 , 31
2015081220 , 20 , 31
2015081221 , 21 , 36
2015081222 , 22 , 40
2015081223 , 23 , 65
2015081300 , 00 , 64
2015081301 , 01 , 58
2015081302 , 02 , 57
2015081303 , 03 , 76
2015081304 , 04 , 81
2015081305 , 05 , 83
2015081306 , 06 , 107
2015081307 , 07 , 94
2015081308 , 08 , 79
2015081309 , 09 , 40
2015081310 , 10 , 44
2015081311 , 11 , 29
2015081312 , 12 , 32
2015081313 , 13 , 24
2015081314 , 14 , 32
2015081315 , 15 , 19
2015081316 , 16 , 26
2015081317 , 17 , 23
2015081318 , 18 , 24
2015081319 , 19 , 22
2015081320 , 20 , 31
2015081321 , 21 , 25
2015081322 , 22 , 35
2015081323 , 23 , 38
2015081400 , 00 , 45
2015081401 , 01 , 53
2015081402 , 02 , 43
2015081403 , 03 , 63
2015081404 , 04 , 59
2015081405 , 05 , 69
2015081406 , 06 , 71
2015081407 , 07 , 53
2015081408 , 08 , 61
2015081409 , 09 , 50
2015081410 , 10 , 49
2015081411 , 11 , 37
2015081412 , 12 , 25
2015081413 , 13 , 19
2015081414 , 14 , 24
2015081415 , 15 , 17
2015081416 , 16 , 19
2015081417 , 17 , 12
2015081418 , 18 , 11
2015081419 , 19 , 18
2015081420 , 20 , 19
2015081421 , 21 , 16
2015081422 , 22 , 23
2015081423 , 23 , 17
2015081500 , 00 , 25
2015081501 , 01 , 24
2015081502 , 02 , 21
2015081503 , 03 , 32
2015081504 , 04 , 34
2015081505 , 05 , 35
2015081506 , 06 , 34
2015081507 , 07 , 41
2015081508 , 08 , 25
2015081509 , 09 , 28
2015081510 , 10 , 22
2015081511 , 11 , 20
2015081512 , 12 , 18
2015081513 , 13 , 16
2015081514 , 14 , 42
2015081515 , 15 , 17
2015081516 , 16 , 15
2015081517 , 17 , 18
2015081518 , 18 , 13
2015081519 , 19 , 16
2015081520 , 20 , 27
2015081521 , 21 , 30
2015081522 , 22 , 17
2015081523 , 23 , 28
2015081600 , 00 , 27
2015081601 , 01 , 20
2015081602 , 02 , 27
2015081603 , 03 , 24
2015081604 , 04 , 36
2015081605 , 05 , 28
2015081606 , 06 , 36
2015081607 , 07 , 28
2015081608 , 08 , 23
2015081609 , 09 , 27
2015081610 , 10 , 22
2015081611 , 11 , 13
2015081612 , 12 , 17
2015081613 , 13 , 18
2015081614 , 14 , 24
2015081615 , 15 , 23
2015081616 , 16 , 14
2015081617 , 17 , 18
2015081618 , 18 , 18
2015081619 , 19 , 15
2015081620 , 20 , 17
2015081621 , 21 , 16
2015081622 , 22 , 26
2015081623 , 23 , 31
2015081700 , 00 , 27
2015081701 , 01 , 21
2015081702 , 02 , 25
2015081703 , 03 , 21
2015081704 , 04 , 24
2015081705 , 05 , 29
2015081706 , 06 , 22
2015081707 , 07 , 18
2015081708 , 08 , 30
2015081709 , 09 , 14
2015081710 , 10 , 18
2015081711 , 11 , 20
2015081712 , 12 , 6
2015081713 , 13 , 12
2015081714 , 14 , 25
2015081715 , 15 , 17
2015081716 , 16 , 14
2015081717 , 17 , 6
2015081718 , 18 , 17
2015081719 , 19 , 10
2015081720 , 20 , 12
2015081721 , 21 , 14
2015081722 , 22 , 18
2015081723 , 23 , 17
2015081800 , 00 , 18
2015081801 , 01 , 19
2015081802 , 02 , 21
2015081803 , 03 , 26
2015081804 , 04 , 20
2015081805 , 05 , 18
2015081806 , 06 , 13
2015081807 , 07 , 29
2015081808 , 08 , 33
2015081809 , 09 , 16
2015081810 , 10 , 10
2015081811 , 11 , 10
2015081812 , 12 , 9
2015081813 , 13 , 18
2015081814 , 14 , 13
2015081815 , 15 , 19
2015081816 , 16 , 17
2015081817 , 17 , 17
2015081818 , 18 , 18
2015081819 , 19 , 15
2015081820 , 20 , 18
2015081821 , 21 , 16
2015081822 , 22 , 22
2015081823 , 23 , 16
2015081900 , 00 , 14
2015081901 , 01 , 18
2015081902 , 02 , 23
2015081903 , 03 , 28
2015081904 , 04 , 24
2015081905 , 05 , 23
2015081906 , 06 , 20
2015081907 , 07 , 30
2015081908 , 08 , 16
2015081909 , 09 , 16
2015081910 , 10 , 16
2015081911 , 11 , 10
2015081912 , 12 , 15
2015081913 , 13 , 11
2015081914 , 14 , 8
2015081915 , 15 , 13
2015081916 , 16 , 15
2015081917 , 17 , 11
2015081918 , 18 , 13
2015081919 , 19 , 16
2015081920 , 20 , 15
2015081921 , 21 , 12
2015081922 , 22 , 16
2015081923 , 23 , 22
2015082000 , 00 , 19
2015082001 , 01 , 15
2015082002 , 02 , 14
2015082003 , 03 , 16
2015082004 , 04 , 23
2015082005 , 05 , 18
2015082006 , 06 , 16
2015082007 , 07 , 20
2015082008 , 08 , 15
2015082009 , 09 , 13
2015082010 , 10 , 16
2015082011 , 11 , 16
2015082012 , 12 , 10
2015082013 , 13 , 11
2015082014 , 14 , 17
2015082015 , 15 , 12
2015082016 , 16 , 15
2015082017 , 17 , 14
2015082018 , 18 , 13
2015082019 , 19 , 14
2015082020 , 20 , 27
2015082021 , 21 , 12
2015082022 , 22 , 15
2015082023 , 23 , 20
2015082100 , 00 , 12
2015082101 , 01 , 18
2015082102 , 02 , 25
2015082103 , 03 , 33
2015082104 , 04 , 18
2015082105 , 05 , 14
2015082106 , 06 , 15
2015082107 , 07 , 14
2015082108 , 08 , 11
2015082109 , 09 , 13
2015082110 , 10 , 12
2015082111 , 11 , 16
2015082112 , 12 , 19
2015082113 , 13 , 20
2015082114 , 14 , 39
2015082115 , 15 , 46
2015082116 , 16 , 39
2015082117 , 17 , 15
2015082118 , 18 , 13
2015082119 , 19 , 23
2015082120 , 20 , 14
2015082121 , 21 , 18
2015082122 , 22 , 16
2015082123 , 23 , 18
2015082200 , 00 , 19
2015082201 , 01 , 14
2015082202 , 02 , 16
2015082203 , 03 , 25
2015082204 , 04 , 26
2015082205 , 05 , 16
2015082206 , 06 , 14
2015082207 , 07 , 9
2015082208 , 08 , 21
2015082209 , 09 , 14
2015082210 , 10 , 15
2015082211 , 11 , 16
2015082212 , 12 , 20
2015082213 , 13 , 17
2015082214 , 14 , 17
2015082215 , 15 , 16
2015082216 , 16 , 16
2015082217 , 17 , 9
2015082218 , 18 , 20
2015082219 , 19 , 14
2015082220 , 20 , 20
2015082221 , 21 , 12
2015082222 , 22 , 25
2015082223 , 23 , 19
2015082300 , 00 , 22
2015082301 , 01 , 19
2015082302 , 02 , 22
2015082303 , 03 , 19
2015082304 , 04 , 22
2015082305 , 05 , 20
2015082306 , 06 , 27
2015082307 , 07 , 16
2015082308 , 08 , 15
2015082309 , 09 , 18
2015082310 , 10 , 16
2015082311 , 11 , 24
2015082312 , 12 , 17
2015082313 , 13 , 15
2015082314 , 14 , 17
2015082315 , 15 , 13
2015082316 , 16 , 20
2015082317 , 17 , 36
2015082318 , 18 , 13
2015082319 , 19 , 18
2015082320 , 20 , 16
2015082321 , 21 , 14
2015082322 , 22 , 19
2015082323 , 23 , 11
2015082400 , 00 , 18
2015082401 , 01 , 22
2015082402 , 02 , 14
2015082403 , 03 , 25
2015082404 , 04 , 12
2015082405 , 05 , 15
2015082406 , 06 , 14
2015082407 , 07 , 21
2015082408 , 08 , 29
2015082409 , 09 , 25
2015082410 , 10 , 14
2015082411 , 11 , 14
2015082412 , 12 , 21
2015082413 , 13 , 18
2015082414 , 14 , 15
2015082415 , 15 , 14
2015082416 , 16 , 17
2015082417 , 17 , 14
2015082418 , 18 , 15
2015082419 , 19 , 17
2015082420 , 20 , 21
2015082421 , 21 , 19
2015082422 , 22 , 20
2015082423 , 23 , 14
2015082500 , 00 , 19
2015082501 , 01 , 19
2015082502 , 02 , 22
2015082503 , 03 , 20
2015082504 , 04 , 31
2015082505 , 05 , 17
2015082506 , 06 , 18
2015082507 , 07 , 18
2015082508 , 08 , 20
2015082509 , 09 , 25
2015082510 , 10 , 18
2015082511 , 11 , 16
2015082512 , 12 , 11
2015082513 , 13 , 11
2015082514 , 14 , 13
2015082515 , 15 , 17
2015082516 , 16 , 20
2015082517 , 17 , 23
2015082518 , 18 , 19
2015082519 , 19 , 23
2015082520 , 20 , 11
2015082521 , 21 , 16
2015082522 , 22 , 28
2015082523 , 23 , 18
2015082600 , 00 , 19
2015082601 , 01 , 17
2015082602 , 02 , 22
2015082603 , 03 , 17
2015082604 , 04 , 21
2015082605 , 05 , 23
2015082606 , 06 , 20
2015082607 , 07 , 19
2015082608 , 08 , 14
2015082609 , 09 , 12
2015082610 , 10 , 23
2015082611 , 11 , 23
2015082612 , 12 , 17
2015082613 , 13 , 20
2015082614 , 14 , 21
2015082615 , 15 , 15
2015082616 , 16 , 12
2015082617 , 17 , 18
2015082618 , 18 , 18
2015082619 , 19 , 23
2015082620 , 20 , 15
2015082621 , 21 , 15
2015082622 , 22 , 15
2015082623 , 23 , 16
2015082700 , 00 , 22
2015082701 , 01 , 19
2015082702 , 02 , 14
2015082703 , 03 , 23
2015082704 , 04 , 23
2015082705 , 05 , 25
2015082706 , 06 , 15
2015082707 , 07 , 18
2015082708 , 08 , 16
2015082709 , 09 , 19
2015082710 , 10 , 18
2015082711 , 11 , 20
2015082712 , 12 , 16
2015082713 , 13 , 22
2015082714 , 14 , 22
2015082715 , 15 , 16
2015082716 , 16 , 21
2015082717 , 17 , 15
2015082718 , 18 , 13
2015082719 , 19 , 10
2015082720 , 20 , 18
2015082721 , 21 , 18
2015082722 , 22 , 28
2015082723 , 23 , 24
2015082800 , 00 , 24
2015082801 , 01 , 17
2015082802 , 02 , 19
2015082803 , 03 , 13
2015082804 , 04 , 22
2015082805 , 05 , 15
2015082806 , 06 , 17
2015082807 , 07 , 20
2015082808 , 08 , 17
2015082809 , 09 , 24
2015082810 , 10 , 17
2015082811 , 11 , 12
2015082812 , 12 , 15
2015082813 , 13 , 22
2015082814 , 14 , 13
2015082815 , 15 , 13
2015082816 , 16 , 19
2015082817 , 17 , 13
2015082818 , 18 , 6
2015082819 , 19 , 20
2015082820 , 20 , 16
2015082821 , 21 , 20
2015082822 , 22 , 21
2015082823 , 23 , 15
2015082900 , 00 , 22
2015082901 , 01 , 18
2015082902 , 02 , 17
2015082903 , 03 , 15
2015082904 , 04 , 14
2015082905 , 05 , 26
2015082906 , 06 , 24
2015082907 , 07 , 24
2015082908 , 08 , 16
2015082909 , 09 , 15
2015082910 , 10 , 21
2015082911 , 11 , 24
2015082912 , 12 , 18
2015082913 , 13 , 15
2015082914 , 14 , 15
2015082915 , 15 , 10
2015082916 , 16 , 15
2015082917 , 17 , 14
2015082918 , 18 , 17
2015082919 , 19 , 14
2015082920 , 20 , 18
2015082921 , 21 , 42
2015082922 , 22 , 22
2015082923 , 23 , 28
2015083000 , 00 , 20
2015083001 , 01 , 24
2015083002 , 02 , 31
2015083003 , 03 , 17
2015083004 , 04 , 22
2015083005 , 05 , 21
2015083006 , 06 , 27
2015083007 , 07 , 23
2015083008 , 08 , 14
2015083009 , 09 , 31
2015083010 , 10 , 18
2015083011 , 11 , 10
2015083012 , 12 , 18
2015083013 , 13 , 16
2015083014 , 14 , 18
2015083015 , 15 , 12
2015083016 , 16 , 13
2015083017 , 17 , 16
2015083018 , 18 , 18
2015083019 , 19 , 21
2015083020 , 20 , 16
2015083021 , 21 , 19
2015083022 , 22 , 21
2015083023 , 23 , 15
2015083100 , 00 , 18
2015083101 , 01 , 21
2015083102 , 02 , 29
2015083103 , 03 , 18
2015083104 , 04 , 36
2015083105 , 05 , 26
2015083106 , 06 , 22
2015083107 , 07 , 16
2015083108 , 08 , 22
2015083109 , 09 , 19
2015083110 , 10 , 18
2015083111 , 11 , 21
2015083112 , 12 , 21
2015083113 , 13 , 17
2015083114 , 14 , 12
2015083115 , 15 , 24
2015083116 , 16 , 21
2015083117 , 17 , 9
2015083118 , 18 , 14
2015083119 , 19 , 13
2015083120 , 20 , 23
2015083121 , 21 , 16
2015083122 , 22 , 17
2015083123 , 23 , 32
